Upper Klamath Lake Weather Center

Moon Phase Calendar



Upper Klamath Lake Water Level
Online Cameras

 


      

Current Conditions in Klamath Falls
5/9/2021 12:17:50 PM

55°F
Feels Like 52
Clouds
Humidity
43%
Pressure
30.15"
Wind
4.6 mph (N)
Dew Point
33°F
UV Index
8/10 (Very High)
Visibility
6 mi

Hourly Forecast

Date & Time Sun, May 9
12:00 PM
Sun, May 9
1:00 PM
Sun, May 9
2:00 PM
Sun, May 9
3:00 PM
Sun, May 9
4:00 PM
Sun, May 9
5:00 PM
Sun, May 9
6:00 PM
Sun, May 9
7:00 PM
Sun, May 9
8:00 PM
Sun, May 9
9:00 PM
Sun, May 9
10:00 PM
Sun, May 9
11:00 PM
Mon, May 10
12:00 AM
Mon, May 10
1:00 AM
Mon, May 10
2:00 AM
Mon, May 10
3:00 AM
Mon, May 10
4:00 AM
Mon, May 10
5:00 AM
Mon, May 10
6:00 AM
Mon, May 10
7:00 AM
Mon, May 10
8:00 AM
Mon, May 10
9:00 AM
Mon, May 10
10:00 AM
Mon, May 10
11:00 AM
Mon, May 10
12:00 PM
Mon, May 10
1:00 PM
Mon, May 10
2:00 PM
Mon, May 10
3:00 PM
Mon, May 10
4:00 PM
Mon, May 10
5:00 PM
Mon, May 10
6:00 PM
Mon, May 10
7:00 PM
Mon, May 10
8:00 PM
Mon, May 10
9:00 PM
Mon, May 10
10:00 PM
Mon, May 10
11:00 PM
Tue, May 11
12:00 AM
Tue, May 11
1:00 AM
Tue, May 11
2:00 AM
Tue, May 11
3:00 AM
Tue, May 11
4:00 AM
Tue, May 11
5:00 AM
Tue, May 11
6:00 AM
Tue, May 11
7:00 AM
Tue, May 11
8:00 AM
Tue, May 11
9:00 AM
Tue, May 11
10:00 AM
Tue, May 11
11:00 AM
Condition
Clouds

Clouds

Clouds

Clouds

Clouds

Clouds

Clouds

Clouds

Clouds

Clouds

Clouds

Clouds

Clear

Clear

Clear

Clear

Clear

Clear

Clear

Clear

Clear

Clear

Clear

Clear

Clear

Clouds

Clouds

Clouds

Clouds

Clouds

Clouds

Clouds

Clouds

Clouds

Clouds

Clouds

Clouds

Clouds

Clouds

Clouds

Clouds

Clouds

Clouds

Clouds

Clouds

Clouds

Clouds

Clouds
Temperature 55°F55°F56°F57°F58°F58°F57°F54°F49°F44°F42°F40°F39°F38°F37°F36°F35°F34°F34°F38°F43°F46°F50°F53°F56°F59°F61°F63°F64°F64°F64°F61°F53°F49°F46°F45°F44°F43°F42°F41°F41°F40°F40°F44°F49°F54°F58°F61°F
Feels Like 52°F52°F53°F54°F55°F55°F54°F51°F46°F40°F38°F37°F35°F35°F34°F32°F31°F31°F30°F35°F40°F45°F49°F50°F53°F55°F58°F60°F61°F62°F61°F58°F50°F47°F44°F42°F41°F40°F39°F39°F39°F38°F37°F42°F49°F51°F55°F58°F
Cloudiness 75%69%68%69%73%72%58%44%40%32%26%22%0%0%0%0%0%0%0%0%0%0%1%1%2%20%18%20%30%36%98%99%96%97%82%70%20%32%30%25%22%32%17%18%14%12%12%12%
Visibility 6 mi6 mi6 mi6 mi6 mi6 mi6 mi6 mi6 mi6 mi6 mi6 mi6 mi6 mi6 mi6 mi6 mi6 mi6 mi6 mi6 mi6 mi6 mi6 mi6 mi6 mi6 mi6 mi6 mi6 mi6 mi6 mi6 mi6 mi6 mi6 mi6 mi6 mi6 mi6 mi6 mi6 mi6 mi6 mi6 mi6 mi6 mi6 mi
Precipitation 0%0%0%0%0%0%0%0%0%0%0%0%0%0%0%0%0%0%0%0%0%0%0%0%0%0%0%0%0%0%0%0%0%0%0%0%0%0%0%0%0%0%0%0%0%0%0%0%
Humidity 43%41%39%37%35%33%35%41%51%62%68%72%75%78%80%82%84%86%87%77%63%52%41%34%28%25%22%21%20%21%23%34%46%53%58%59%61%62%63%64%65%65%67%60%49%41%35%30%
Dew Point 33°F32°F32°F31°F31°F29°F28°F30°F31°F31°F31°F31°F31°F31°F30°F30°F30°F30°F29°F30°F30°F28°F26°F24°F22°F21°F21°F21°F21°F22°F24°F31°F32°F31°F31°F31°F30°F30°F29°F29°F29°F28°F28°F30°F30°F29°F29°F28°F
Pressure 30.15"30.12"30.09"30.03"30"29.97"29.97"29.97"30.03"30.09"30.15"30.15"30.18"30.18"30.18"30.21"30.21"30.24"30.24"30.24"30.21"30.18"30.15"30.12"30.09"30.06"30.03"30"29.97"29.97"29.97"29.97"30"30.06"30.09"30.09"30.12"30.12"30.12"30.12"30.12"30.12"30.15"30.15"30.09"30.09"30.06"30.03"
Wind Speed 1.9 mph2.2 mph5.2 mph8.1 mph9.8 mph11.4 mph12 mph10.2 mph7.7 mph6.1 mph5.8 mph5.3 mph4.9 mph4.2 mph4 mph4.6 mph4.8 mph4.1 mph3.8 mph3.7 mph4 mph4.2 mph3.8 mph3.2 mph3.1 mph3.3 mph3 mph3.2 mph3 mph2.7 mph3.8 mph6.2 mph5.8 mph4.6 mph4.6 mph5.4 mph5.4 mph4.3 mph4.3 mph3.9 mph3.2 mph3.7 mph4 mph3.4 mph3 mph2 mph0.6 mph0.8 mph
Wind
Direction
358°
N
320°
NW
301°
WNW
304°
NW
310°
NW
308°
NW
305°
NW
304°
NW
311°
NW
322°
NW
328°
NNW
340°
NNW
346°
NNW
355°
N
351°
N
338°
NNW
341°
NNW
354°
N
351°
N
351°
N

N

N
14°
NNE

N
356°
N
350°
N

N
26°
NNE
33°
NNE

N
311°
NW
293°
WNW
304°
NW
314°
NW
329°
NNW
336°
NNW
346°
NNW
345°
NNW
345°
NNW
346°
NNW
342°
NNW
347°
NNW
349°
N
357°
N
13°
NNE
29°
NNE
66°
ENE
163°
SSE

Daily Forecast

Date High Low Precip. Humidity
Today
May 9

Clouds
58 °F
35 °F
0%
41%
Monday
May 10

Clouds
64 °F
34 °F
0%
25%
Tuesday
May 11

Clear
69 °F
40 °F
0%
24%
Wednesday
May 12

Clear
73 °F
45 °F
0%
25%
Thursday
May 13

Clouds
73 °F
46 °F
13%
25%
Friday
May 14

Clouds
70 °F
44 °F
0%
21%
Saturday
May 15

Clear
59 °F
35 °F
0%
20%
Sunday
May 16

Clear
65 °F
31 °F
0%
22%
Monday
May 17

Clear
71 °F
42 °F
0%
22%
Tuesday
May 18

Clear
50 °F
32 °F
4%
33%
Wednesday
May 19

Clouds
59 °F
27 °F
0%
19%
Thursday
May 20

Clouds
65 °F
34 °F
0%
25%
Friday
May 21

Clear
60 °F
42 °F
14%
36%
Saturday
May 22

Clear
73 °F
38 °F
0%
24%
Sunday
May 23

Clouds
75 °F
46 °F
0%
24%
Monday
May 24

Clouds
70 °F
46 °F
0%
23%

Temperature 8-14 Day Outlook



Precipitation 8-14 Day Outlook




Quick Links
Upper Klamath Lake News
Upper Klamath Lake Photos
Upper Klamath Lake Videos




About Us
Contact Us
Site Map
Search Site
Advertise With Us
   
UpperKlamath.USLakes.info
THE UPPER KLAMATH LAKE WEBSITE

Copyright 2021, Lakes Online
Privacy    |    Legal